KB3KAV Weather Reports


time (UTC)temp
F
wind
direction
speed
knots
gust
knots
rain 1hr
in
rain 24hr
in
rain mn
in
humidity
%
barometer
mb
20260506091420 53 88 1.7 1.7 0.00 0.00 0.00 90 1035.9
20260506090415 53 86 0.0 0.0 0.00 0.00 0.00 90 1036.0
20260506085414 53 86 0.0 0.0 0.00 0.00 0.00 90 1036.0
20260506084413 53 85 0.9 0.9 0.00 0.00 0.00 90 1035.9
20260506083413 53 98 0.0 0.0 0.00 0.00 0.00 90 1036.0
20260506082413 53 90 0.0 0.0 0.00 0.00 0.00 90 1036.2
20260506081413 53 80 0.0 0.0 0.00 0.00 0.00 90 1036.2
20260506080412 53 92 0.0 0.0 0.00 0.00 0.00 90 1036.2
20260506073402 53 97 0.0 0.0 0.00 0.00 0.00 90 1036.0
20260506072402 53 97 0.9 0.9 0.00 0.00 0.00 90 1036.2
20260506071358 52 96 0.0 0.0 0.00 0.00 0.00 90 1036.1
20260506070357 52 90 0.0 0.0 0.00 0.00 0.00 90 1036.3
20260506062340 52 98 0.0 0.0 0.00 0.00 0.00 91 1036.6
20260506061339 51 101 0.0 0.9 0.00 0.00 0.00 91 1037.0
20260506060335 51 81 0.9 0.9 0.00 0.00 0.00 92 1036.7
20260506051324 51 80 0.9 0.9 0.00 0.00 0.00 91 1037.5
20260506050319 51 80 0.9 0.9 0.00 0.00 0.00 91 1037.3
20260506044313 52 82 0.0 0.0 0.00 0.00 0.00 91 1037.5
20260506043313 52 88 0.0 0.0 0.00 0.00 0.00 91 1037.2
20260506042310 52 88 0.0 0.0 0.00 0.00 0.00 90 1037.1
20260506041311 52 88 0.0 0.0 0.00 0.00 0.00 90 1037.4
20260506040305 53 88 0.0 0.0 0.00 0.00 0.00 90 1037.6
20260506035306 53 88 0.0 0.0 0.00 0.00 0.00 89 1037.3
20260506034259 53 88 0.0 0.0 0.00 0.00 0.00 89 1037.6
20260506033259 53 88 0.0 0.0 0.00 0.00 0.00 88 1037.6
20260506032258 54 88 0.0 0.0 0.00 0.00 0.00 88 1037.7
20260506031258 54 88 0.0 0.0 0.00 0.00 0.00 88 1037.5
20260506030254 55 88 0.0 0.0 0.00 0.00 0.00 87 1037.4
20260506025253 55 88 0.0 0.0 0.00 0.00 0.00 86 1037.4
20260506024252 56 87 0.0 0.0 0.00 0.00 0.00 85 1037.4
20260506023251 56 87 0.0 0.0 0.00 0.00 0.00 85 1037.4
20260506022246 57 86 0.0 0.0 0.00 0.00 0.00 84 1037.3
20260506021246 57 87 0.0 0.0 0.00 0.00 0.00 83 1037.3
20260506020246 58 87 0.0 0.0 0.00 0.00 0.00 82 1037.3
20260506015241 59 87 0.0 0.0 0.00 0.00 0.00 81 1037.5
20260506014240 59 87 0.0 0.0 0.00 0.00 0.00 80 1037.3
20260506013240 60 87 0.0 0.0 0.00 0.00 0.00 78 1037.2
20260506012239 61 87 0.0 0.0 0.00 0.00 0.00 78 1037.2
20260506011238 61 86 0.0 0.0 0.00 0.00 0.00 75 1036.9
20260506010233 62 86 0.0 0.0 0.00 0.00 0.00 75 1036.7
20260506005233 62 87 0.0 0.0 0.00 0.00 0.00 73 1036.8
20260506004233 63 86 0.0 0.0 0.00 0.00 0.00 72 1036.5
20260506003231 64 83 0.0 0.0 0.00 0.00 0.00 71 1036.5
20260506002229 64 93 0.0 0.0 0.00 0.00 0.00 69 1036.5
20260506001229 65 92 0.0 0.0 0.00 0.00 0.00 68 1036.5
20260506000223 67 91 0.0 0.0 0.00 0.00 0.00 64 1036.3
20260505235224 68 88 0.0 0.0 0.00 0.00 0.00 61 1036.1
20260505234223 69 87 0.9 0.9 0.00 0.00 0.00 58 1036.1
20260505233218 69 67 0.9 1.7 0.00 0.00 0.00 58 1035.8
20260505232218 70 79 0.9 0.9 0.00 0.00 0.00 55 1035.8
20260505231214 71 86 0.0 0.0 0.00 0.00 0.00 49 1035.9
20260505230213 73 93 1.7 1.7 0.00 0.00 0.00 45 1035.9
20260505225213 75 102 0.0 0.9 0.00 0.00 0.00 43 1035.6
20260505224212 75 57 0.9 0.9 0.00 0.00 0.00 40 1035.6
20260505223211 76 229 4.3 5.2 0.00 0.00 0.00 39 1035.7
20260505222209 76 118 1.7 1.7 0.00 0.00 0.00 41 1035.4
20260505221209 76 143 1.7 1.7 0.00 0.00 0.00 39 1035.4
20260505220210 76 86 0.9 0.9 0.00 0.00 0.00 39 1035.3
20260505215205 76 33 1.7 1.7 0.00 0.00 0.00 40 1035.1
20260505214206 76 88 0.9 0.9 0.00 0.00 0.00 38 1035.3
20260505213200 76 113 0.0 0.9 0.00 0.00 0.00 40 1035.4
20260505212159 76 358 3.5 5.2 0.00 0.00 0.00 40 1035.2
20260505211159 76 306 2.6 4.3 0.00 0.00 0.00 37 1035.3
20260505210159 77 61 3.5 4.3 0.00 0.00 0.00 36 1035.4
20260505205154 78 282 2.6 4.3 0.00 0.00 0.00 35 1035.1
20260505204154 78 350 2.6 5.2 0.00 0.00 0.00 35 1035.1
20260505203154 78 44 2.6 2.6 0.00 0.00 0.00 36 1035.0
20260505202152 78 8 7.8 9.6 0.00 0.00 0.00 35 1035.0
20260505201152 78 19 4.3 6.1 0.00 0.00 0.00 34 1035.3
20260505200153 78 3 5.2 7.0 0.00 0.00 0.00 34 1034.9
20260505195152 79 70 5.2 8.7 0.00 0.00 0.00 34 1035.4
20260505194151 80 49 2.6 4.3 0.00 0.00 0.00 34 1035.0
20260505193150 79 164 2.6 2.6 0.00 0.00 0.00 36 1035.3
20260505192146 79 346 9.6 14.8 0.00 0.00 0.00 34 1035.3
20260505191142 80 335 7.0 12.2 0.00 0.00 0.00 36 1035.4
20260505190138 80 135 2.6 4.3 0.00 0.00 0.00 36 1035.6
20260505185137 79 297 7.8 8.7 0.00 0.00 0.00 37 1035.9
20260505184136 79 12 7.8 9.6 0.00 0.00 0.00 37 1036.1
20260505183131 78 24 4.3 7.0 0.00 0.00 0.00 37 1036.1
20260505182129 79 272 7.0 8.7 0.00 0.00 0.00 38 1036.2
20260505181129 79 307 4.3 6.1 0.00 0.00 0.00 39 1036.2
20260505180129 78 331 5.2 7.0 0.00 0.00 0.00 38 1036.2
20260505175127 79 354 10.4 14.8 0.00 0.00 0.00 38 1036.7
20260505174126 79 185 3.5 4.3 0.00 0.00 0.00 39 1036.5
20260505173125 78 331 10.4 14.8 0.00 0.00 0.00 39 1036.8
20260505172120 78 319 9.6 11.3 0.00 0.00 0.00 40 1036.4
20260505171118 77 33 6.1 7.0 0.00 0.00 0.00 40 1036.4
20260505170117 78 289 7.8 9.6 0.00 0.00 0.00 41 1036.9
20260505165114 77 342 11.3 14.8 0.00 0.00 0.00 42 1036.8
20260505164113 76 202 7.8 9.6 0.00 0.00 0.00 43 1037.0
20260505163108 76 355 4.3 5.2 0.00 0.00 0.00 43 1037.0
20260505162103 77 302 7.0 7.8 0.00 0.00 0.00 43 1037.1
20260505161103 76 323 4.3 5.2 0.00 0.00 0.00 47 1037.4
20260505160104 76 40 2.6 2.6 0.00 0.00 0.00 44 1037.5
20260505153100 75 111 6.1 7.8 0.00 0.00 0.00 44 1037.7
20260505152058 75 274 3.5 4.3 0.00 0.00 0.00 45 1037.6
20260505151057 75 295 4.3 6.1 0.00 0.00 0.00 45 1037.7
20260505125036 64 110 0.9 0.9 0.00 0.00 0.00 73 1038.7
20260505124034 62 100 0.0 0.9 0.00 0.00 0.00 74 1038.7
20260505123032 59 103 0.9 0.9 0.00 0.00 0.00 77 1038.9
20260505122032 58 104 0.0 0.0 0.00 0.00 0.00 81 1038.7
20260505121031 56 102 0.0 0.9 0.00 0.00 0.00 83 1039.0
20260505120029 56 102 0.9 0.9 0.00 0.00 0.00 81 1039.0
20260505115028 54 100 0.0 0.0 0.00 0.00 0.00 86 1038.8
20260505114027 54 101 0.9 0.9 0.00 0.00 0.00 85 1039.0
20260505113026 51 100 0.9 0.9 0.00 0.00 0.00 90 1038.8
20260505112020 50 91 0.0 0.0 0.00 0.00 0.00 94 1038.9
20260505111016 49 91 0.0 0.0 0.00 0.00 0.00 94 1038.6
20260505102009 46 90 0.0 0.0 0.00 0.00 0.00 95 1038.3
20260505101009 46 90 0.9 0.9 0.00 0.00 0.00 95 1038.0
20260505100010 46 91 0.0 0.0 0.00 0.00 0.00 94 1038.1
20260505095008 46 91 0.0 0.0 0.00 0.00 0.00 94 1038.1
20260505094006 46 91 0.0 0.0 0.00 0.00 0.00 94 1038.0
20260505093006 46 92 0.0 0.0 0.00 0.00 0.00 94 1038.0
20260505092001 47 92 0.0 0.0 0.00 0.00 0.00 93 1037.8